Regional Weather Roundup
Issued by NWS Grand Forks, ND

Home | Current Version | Previous Version | Graphics & Text | Print | Product List | Glossary On
Versions: 1 2 3 4 5 6 7 8 9 10 11 12 13 14 15 16 17 18 19 20 21 22 23 24 25 26 27 28 29 30 31 32 33 34 35 36 37 38 39 40 41 42 43 44 45 46 47 48 49 50
000
ASUS43 KFGF 221431
RWRFGF
PRAIRIE TO PINES  WEATHER ROUNDUP
NATIONAL WEATHER SERVICE EASTERN NORTH DAKOTA/GRAND FORKS ND
900 AM CDT TUE APR 22 2014

 **SATELLITE DATA USED TO AUGMENT SKY COVER AT AUTOMATED STATIONS**
 *****  WEATHER ACROSS EASTERN NORTH DAKOTA  *****

CITY           SKY/WX    TMP DP  RH WIND       PRES   REMARKS
GRAND FORKS    MOSUNNY   43  37  79 SE7       30.13F
GRAND FRKS AFB MOSUNNY   44  39  81 E6        30.13S
GRAND FRKS NWS   N/A     45 N/A N/A E6          N/A
DEVILS LAKE    MOSUNNY   41  30  65 SE7       30.09S
FARGO          MOSUNNY   44  34  67 SE3       30.14R
WAHPETON ARPT  MOSUNNY   45  32  61 CALM      30.15S
$$

 ***** WEATHER ACROSS CENTRAL AND WESTERN NORTH DAKOTA  *****

CITY           SKY/WX    TMP DP  RH WIND       PRES   REMARKS
BISMARCK       SUNNY     41  33  73 E8        30.05F
MINOT          MOSUNNY   37  32  82 SE5       30.03F
JAMESTOWN      MOSUNNY   40  32  73 S3        30.10S
MINOT AFB      PTSUNNY   39  37  92 SE7       30.02F
GARRISON         N/A     41  35  79 E7        30.02F
WILLISTON      MOSUNNY   51  30  44 SE7       29.95F
DICKINSON      CLOUDY    51  29  42 SE17G24   29.93F
HETTINGER      MOSUNNY   47  31  53 SE20G26   29.94F
$$

 *****  OTHER AIRPORT OBSERVATIONS IN OUR AREA  *****

CITY           SKY/WX    TMP DP  RH WIND       PRES   REMARKS
WALHALLA         N/A     41  39  93 SE7       30.12F
GRAFTON AIRPOR FAIR      41  41 100 SE9       30.13F
VALLEY CITY AR FAIR      39  36  87 S3        30.12S
CANDO          FAIR      43  34  70 SE5       30.09F
CAVALIER APRT  FAIR      41  37  87 SE6       30.13S HAZE
GWINNER        SUNNY     50  34  53 SW9       30.14S
SHEYENNE NWR     N/A     46  39  76 CALM      29.95S
ROLLA          FAIR      41  37  87 CALM      30.08F
 ***** THE ABOVE OBSERVATIONS ARE NON NWS ARE NOT QUALITY
       CONTROLLED AND MAY MIS-REPORT RAIN FOR SNOW...
$$

  *****  WEATHER ACROSS NORTHERN MINNESOTA  *****

CITY           SKY/WX    TMP DP  RH WIND       PRES   REMARKS
FLAG ISLAND    SUNNY     34  27  75 CALM      30.15S
WARROAD        SUNNY     37  30  75 CALM      30.16S
ROSEAU         CLOUDY    39  30  70 SW7       30.15F
HALLOCK        CLOUDY    41  36  81 SE7       30.14S
THF RVR FALLS  MOSUNNY   39  28  65 SE8       30.16S
BAUDETTE       SUNNY     37  28  70 N3        30.15R
WASKISH        SUNNY     36  28  75 W5        30.15F
CROOKSTON      PTSUNNY   41  36  81 SE8       30.16S
$$
  *****  WEATHER ACROSS CENTRAL AND WEST MINNESOTA  *****

CITY           SKY/WX    TMP DP  RH WIND       PRES   REMARKS
FOSSTON        MOSUNNY   43  36  75 CALM      30.16S
BEMIDJI        CLOUDY    35  28  76 CALM      30.15S
PARK RAPIDS    CLOUDY    38  27  64 N3        30.15S
ELBOW LAKE     FAIR      47  34  61 CALM      30.14F
WADENA         SUNNY     39  30  70 CALM      30.15S
DETROIT LAKES  SUNNY     41  36  81 E5        30.15S
MOORHEAD       MOSUNNY   45  39  81 S3        30.14S
FERGUS FALLS   MOSUNNY   46  30  53 CALM      30.12S
MORRIS MN      SUNNY     48  36  61 CALM      30.14S
STAPLES        SUNNY     39  27  60 CALM      30.16S
$$
  *****  WEATHER ELSEWHERE ACROSS MINNESOTA  *****

CITY           SKY/WX    TMP DP  RH WIND       PRES   REMARKS
DULUTH         MOSUNNY   37  24  59 NW10      30.08S
INTRNTL FALLS  SUNNY     38  27  64 N9        30.13R
ELY            CLOUDY    36  25  64 NW12      30.08R
CLOQUET        SUNNY     37  23  56 N9        30.10S
WHEATON        MOSUNNY   50  37  62 CALM      30.16S
BRAINERD       SUNNY     43  26  51 N9        30.15S
HIBBING        SUNNY     39  25  57 N14       30.11R
ALEXANDRIA     SUNNY     45  35  68 CALM      30.15S
SAINT CLOUD    SUNNY     42  27  55 N7        30.16R
MINNEAPOLIS    MOSUNNY   44  27  51 N15       30.14R
$$

  *****  WEATHER ACROSS SOUTH DAKOTA  *****

CITY           SKY/WX    TMP DP  RH WIND       PRES   REMARKS
SIOUX FALLS    MOSUNNY   45  33  63 CALM      30.16S
BROOKINGS      NOT AVBL
WATERTOWN      SUNNY     43  34  70 S6        30.14R
HURON          SUNNY     46  32  58 S10       30.13S
SISSETON         N/A     48  37  65 CALM      30.13S
ABERDEEN       SUNNY     44  32  62 S9        30.13S
MITCHELL       SUNNY     47  34  60 SE8       30.14F
PIERRE         SUNNY     47  34  60 SE14      30.03F
MOBRIDGE       SUNNY     49  33  54 SE12      30.02F
RAPID CITY     MOSUNNY   47  33  58 SE9       29.88F
$$

  *****  SOME WEATHER IN NEARBY STATES *****

CITY           SKY/WX    TMP DP  RH WIND       PRES   REMARKS
GLASGOW MT     MOSUNNY   50  31  48 E20       29.81F
GREAT FALLS MT MOSUNNY   47  29  49 CALM      29.69F
CHEYENNE WY    CLOUDY    47  36  65 SW3       30.01F
SCOTTSBLUFF NE PTSUNNY   53  36  52 SE16      29.96F
OMAHA NE       SUNNY     50  33  52 CALM      30.17S
DES MOINES IA  MOSUNNY   51  30  44 NE12      30.14S
DAVENPORT IA   SUNNY     47  35  63 N20       30.06R
CHICAGO IL     MOSUNNY   47  27  45 NW17G26   29.97S
EAU CLAIRE WI  SUNNY     42  27  55 N9        30.08S
LA CROSSE WI   SUNNY     45  27  49 N13       30.07S
$$

  *****  SOME NATIONAL WEATHER *****

CITY           SKY/WX    TMP DP  RH WIND       PRES   REMARKS
LA GUARDIA NY  CLOUDY    59  45  59 SW8       29.70F
RALEIGH NC     PTSUNNY   64  45  49 SW7       29.80F
ATLANTA GA     PTSUNNY   69  56  62 W8        29.92S
NEW ORLEANS LA MOSUNNY   70  65  84 SW10      29.99F
OKLAHOMA CITY  SUNNY     63  44  50 NE13      30.13S
ALBUQUERQUE NM MOSUNNY   61  39  44 N6        30.16R
SALT LAKE CITY CLOUDY    67  31  26 SE15      29.77S
LOS ANGELES CA CLOUDY    60  53  77 W7        29.96R
BOISE ID       LGT RAIN  49  43  80 N10       29.78S
SEATTLE WA     CLOUDY    42  38  85 E7        29.89R
$$

*** WEATHER ACROSS MANITOBA...SASKATCHEWAN AND ONTARIO ***
                ***ONTARIO***

CITY           SKY/WX    TMP DP  RH WIND       PRES   REMARKS
GERALDTON      FLURRIES  28  25  86 N9        29.96R WCI  20
THUNDER BAY    CLOUDY    37  28  70 NW10G18   30.02R
SIOUX LOOKOUT  MOSUNNY   36  25  64 NW7       30.08S
TORONTO        PTSUNNY   55  52  88 NE7       29.54F
BIG TROUT LK   SUNNY     30  23  74 W6        30.05F WCI  24
PICKLE LAKE    PTSUNNY   32  25  74 N6        30.06R
DRYDEN         SUNNY     36  27  69 N6        30.10R
KENORA         SUNNY     37  25  60 N7        30.13S
$$
                *** MANITOBA***

CITY           SKY/WX    TMP DP  RH WIND       PRES   REMARKS
BRANDON        MOSUNNY   41  37  87 N2        30.10S
DAUPHIN        SUNNY     39  36  87 CALM      30.08S
ISLAND LAKE    MOSUNNY   32  30  93 W3        30.06S
PILOT MOUND      N/A     41  36  81 S3          N/A
THE PAS        MOSUNNY   39  32  75 S8          N/A
THOMPSON       PTSUNNY   36  28  75 SE2       30.00F
WINNIPEG       PTSUNNY   41  32  70 S9        30.14S
LYNN LAKE      MOSUNNY   41  32  70 E5        29.97R
CHURCHILL      MOSUNNY   23  16  74 E3        30.04
GILLAM         PTSUNNY   30  25  80 CALM      30.03
$$
                ***SASKATCHEWAN***

CITY           SKY/WX    TMP DP  RH WIND       PRES   REMARKS
ESTEVAN        PTSUNNY   45  37  76 E13       29.99F
KINDERSLEY     CLOUDY    46  32  57 SE7       29.77F
LLOYDMINSTER   PTSUNNY   41  32  70 E7        29.80S
PRINCE ALBERT  PTSUNNY   39  36  87 E8        29.93F
REGINA         PTSUNNY   43  36  75 SE16      29.94F
YORKTON        SUNNY     39  36  87 S8        30.02F
N. BATTLEFORD  CLOUDY    43  34  70 E8        29.85S
LA RONGE       PTSUNNY   37  32  81 NE2       29.96S
SASKATOON      CLOUDY    43  34  70 SE12      29.87F
SWIFT CURRENT  SUNNY     48  28  46 SE15      29.79F
$$
NOTE: THESE ARE AUTOMATED STATIONS WITH LIMITED QUALITY CONTROL
      "FAIR" INDICATES FEW OR NO CLOUDS BELOW 12,000 FEET WITH NO
      SIGNIFICANT WEATHER AND/OR OBSTRUCTIONS TO VISIBILITY.
      SKY/WX - SKY CONDITION AND SIGNIFICANT WEATHER.
      TMP - AIR TEMPERATURE.    DP   - DEWPOINT TEMPERATURE.
      RH  - RELATIVE HUMIDITY.  PRES - PRESSURE.
      HX  - HEAT INDEX.         WCI  - WIND CHILL INDEX.
$



USA.gov is the U.S. government's official web portal to all federal, state and local government web resources and services.